Location: Chochol
(49.7771°N, 14.9780°E)
Time: 23:16:04
(UTC+00:00)

STARLINK-52 - Pass Details

Date: 09 April 2020
Orbit: 392 x 395 km, 53.0° (Epoch: 29 May)

Event Time Altitude Azimuth Distance (km) Brightness Sun altitude
Rises 19:08:01 0° 235° (SW) 2,284 7.1 -13.3°
Reaches altitude 10° 19:10:05 10° 232° (SW) 1,432 6.0 -13.6°
Maximum altitude 19:13:15 60° 152° (SSE) 457 2.9 -14.0°
Enters shadow 19:15:07 22° 77° (ENE) 926 4.4 -14.3°
